Wind_Speed
6 6 6 6 6 5 3 3 4 5 5 5 5 5 5 5 4 3 3 4 3 3 3 0 0 1 2 2 2 3 6 5 5 4 5 8 11 6 8 9 7 3 6 5 4
8 8 8 8 6 8 8 7 6 5 4 3 3 4 4 4 3 4 3 4 4 5 5 4 2 4 7 3 1 3 5 4 3 5 6 6 6 10 9 6 6 4 6 4 4
11 11 10 9 8 9 10 10 9 8 6 6 6 6 6 5 5 4 4 4 4 4 3 4 5 6 8 6 4 5 6 4 1 3 3 3 4 4 6 8 7 7 9 3 2
13 12 12 9 8 9 11 12 12 9 8 8 7 6 6 7 7 7 5 4 3 4 5 6 7 6 8 7 7 8 8 5 3 4 6 5 5 2 6 7 7 7 11 13 10
11 11 10 9 7 7 9 12 12 10 9 7 5 5 6 7 6 6 5 5 4 3 4 4 4 5 5 3 5 10 8 3 4 6 7 4 6 8 8 7 8 9 10 8 10
8 7 8 8 6 5 5 9 10 9 8 6 5 5 6 3 5 5 5 5 3 3 1 2 3 4 4 4 9 9 5 2 3 4 5 4 2 4 8 6 8 10 9 9 8
8 7 7 5 5 3 1 5 7 7 6 5 4 3 4 4 4 4 5 5 5 4 1 2 3 1 4 8 9 10 6 4 2 2 4 8 8 3 6 7 8 11 6 8 9
8 7 7 4 4 4 3 4 6 7 5 4 3 3 2 3 4 6 5 4 5 2 1 2 1 4 8 10 9 7 7 5 2 2 4 5 7 7 3 5 8 11 11 9 8
8 7 6 3 4 4 5 6 7 7 6 5 4 4 2 2 3 4 4 4 3 1 1 3 1 4 10 11 8 5 4 6 3 2 2 6 8 7 6 2 4 10 13 9 9
8 6 5 4 5 5 5 7 7 7 6 5 4 4 4 4 3 2 3 3 2 1 2 2 3 5 7 7 7 5 5 9 3 1 1 4 11 8 8 8 4 7 13 12 12
9 6 5 3 7 7 6 6 6 6 5 4 5 5 4 3 5 4 3 2 2 1 1 2 2 6 7 9 10 7 8 3 6 2 1 4 6 8 15 17 10 6 8 13 12
10 8 6 4 7 8 6 5 6 7 7 6 4 4 4 4 5 6 5 4 3 2 1 1 3 5 6 10 10 13 11 4 4 6 2 1 2 13 17 17 14 6 3 11 8
11 10 7 5 5 10 9 8 6 6 8 7 5 3 5 3 2 3 4 4 4 3 2 1 3 3 5 7 9 10 9 8 7 8 4 5 9 12 13 15 13 13 4 5 9
13 11 9 7 5 12 13 8 7 5 8 7 5 4 5 6 5 2 3 5 4 3 5 3 3 4 5 6 8 12 2 8 11 11 10 10 12 15 11 11 11 12 7 6 9
14 12 11 9 6 13 15 12 9 7 9 7 7 7 6 7 5 4 3 4 5 4 6 6 6 8 6 1 3 10 3 2 5 7 13 17 8 12 16 14 10 11 12 8 6
15 13 12 10 7 13 16 15 13 13 11 9 8 9 7 6 6 4 2 4 4 4 6 7 7 6 4 4 2 3 4 1 3 3 7 8 12 8 17 20 14 12 9 5 4
16 14 12 11 9 14 17 18 18 17 13 12 11 8 7 6 3 3 4 6 6 10 10 8 8 9 4 2 1 2 2 0 1 4 9 8 7 3 7 10 12 14 13 6 5
18 16 12 12 11 15 19 20 20 20 16 13 12 12 11 9 9 8 8 9 10 11 9 9 9 9 4 2 2 3 1 1 2 5 6 6 4 6 4 5 10 10 8 10 5
16 16 13 13 14 18 19 21 22 22 19 18 15 14 14 14 11 11 12 12 11 11 15 14 11 10 6 6 4 2 4 4 6 7 6 7 7 3 4 6 7 5 9 12 9
15 16 14 15 18 20 22 23 24 22 20 21 18 15 14 13 13 13 13 11 13 12 12 12 13 13 12 9 8 8 7 9 12 13 11 10 11 9 9 9 8 5 6 10 10
12 15 13 16 20 23 25 24 23 22 19 17 14 12 12 12 14 17 14 13 11 10 6 7 7 7 11 9 8 10 12 12 15 17 20 16 11 16 13 14 16 11 11 10 7
9 11 13 18 20 24 28 29 26 22 21 18 14 12 9 14 15 16 15 11 11 11 10 11 9 9 11 12 17 21 18 19 22 24 27 25 15 14 17 18 17 21 20 13 10
10 12 14 18 21 25 30 29 26 24 23 20 19 17 15 16 18 18 19 18 16 17 16 16 17 17 15 16 19 21 22 24 26 27 30 32 29 27 22 20 17 22 25 21 18
11 14 15 18 19 21 26 26 23 24 23 22 22 21 22 22 21 23 25 24 23 22 21 21 20 20 21 23 24 28 30 32 34 36 37 37 37 35 32 32 30 28 31 25 25
11 14 16 17 19 20 21 24 23 21 19 19 18 21 25 24 22 23 21 24 25 25 23 23 22 25 26 27 28 28 29 32 36 38 40 41 41 38 36 35 36 38 36 34 31
11 14 17 17 19 20 17 18 22 21 20 20 19 20 23 22 22 21 22 24 26 25 26 26 28 28 28 30 31 32 33 34 36 38 40 42 44 43 42 42 39 40 44 42 38
11 12 16 17 17 18 19 19 20 21 20 19 20 21 21 22 22 23 24 26 25 25 28 27 28 29 31 32 33 35 35 38 40 41 43 45 45 46 46 46 45 42 41 47 44
Wind_Direction
334 340 320 312 268 262 252 224 217 219 230 236 242 245 251 254 256 234 249 275 294 308 312 337 60 50 40 72 66 247 248 244 273 291 276 246 256 246 266 267 230 252 248 282 283
309 311 313 307 271 257 252 246 241 234 232 238 240 248 254 257 253 240 240 263 273 281 287 288 296 292 300 340 360 254 253 258 263 276 275 288 279 268 269 235 210 209 174 243 247
297 298 303 295 271 256 253 247 245 248 248 248 250 253 257 256 253 256 243 252 269 279 292 298 297 305 302 301 287 296 279 287 290 355 321 292 298 255 275 231 217 212 208 241 300
288 292 297 290 273 264 252 243 242 244 249 252 258 256 255 257 253 249 247 238 236 272 293 292 307 311 305 295 288 269 277 290 312 346 334 3 340 269 314 272 243 236 246 251 262
292 289 293 288 270 272 251 238 238 242 253 254 237 238 255 258 253 248 245 231 230 239 270 304 8 18 340 291 270 263 264 287 330 346 2 13 24 339 314 272 249 252 231 246 244
316 304 299 292 259 274 249 227 227 231 234 219 227 253 276 253 237 229 214 219 217 196 239 344 338 24 2 214 237 234 234 81 18 354 21 16 17 329 296 320 253 245 241 238 251
329 323 317 288 249 247 221 206 205 199 196 206 225 270 265 234 202 207 192 190 174 169 217 324 339 129 161 181 208 207 179 126 71 82 76 42 28 22 355 324 238 228 236 229 235
330 326 329 274 239 226 184 170 172 178 194 202 214 251 244 218 202 192 194 177 172 190 1 339 333 196 163 167 191 198 173 143 58 84 47 18 14 26 336 329 206 206 224 221 239
325 322 325 251 223 204 183 180 180 184 190 194 208 237 232 204 195 195 191 187 201 237 23 355 267 210 170 172 177 202 208 155 147 236 14 4 344 352 357 55 190 203 206 223 235
314 317 312 253 203 169 165 182 190 190 191 189 196 225 241 217 197 182 208 229 231 283 37 299 220 200 184 171 177 199 167 197 229 305 354 334 341 6 0 19 158 167 197 223 235
298 310 302 285 208 184 178 177 186 191 197 206 191 188 210 227 202 188 217 237 254 248 99 299 218 184 196 191 194 201 147 148 235 155 82 344 9 5 29 30 25 27 185 216 229
288 295 294 278 218 197 180 164 186 206 215 212 208 197 204 204 231 201 207 232 224 188 139 293 266 224 236 219 229 246 261 260 142 140 126 282 58 31 28 37 33 34 137 220 228
281 284 289 284 234 200 194 178 177 199 208 203 207 162 158 157 196 198 203 211 205 182 133 338 11 344 304 295 275 254 270 166 143 102 96 89 58 22 12 45 36 38 175 150 160
276 275 284 279 234 198 207 189 183 188 197 180 183 144 138 137 135 150 211 207 196 153 119 88 83 71 48 310 294 271 141 149 117 91 70 66 66 35 34 37 52 46 77 229 201
277 266 271 273 239 200 202 192 185 179 176 156 169 159 145 145 116 123 140 178 183 164 151 155 108 102 97 341 258 262 223 168 110 77 66 61 62 27 33 18 56 54 73 60 60
278 269 262 271 240 206 203 192 181 171 186 174 168 176 164 152 132 124 151 187 170 149 153 140 128 129 82 42 350 272 280 300 232 83 17 25 37 45 41 46 47 45 63 54 77
279 269 258 259 223 206 203 194 183 181 187 183 173 184 183 154 142 138 178 163 149 141 142 140 143 135 134 25 8 297 251 259 88 293 300 322 351 5 2 50 26 14 23 30 14
272 261 255 244 216 206 204 199 195 194 195 201 184 182 169 172 173 164 165 165 157 167 167 166 165 175 221 208 95 70 40 248 261 289 299 313 301 305 272 353 6 27 31 26 351
268 249 245 222 207 209 208 205 203 204 208 206 216 200 192 193 200 198 192 194 206 198 189 190 192 209 207 203 199 212 151 237 242 269 274 255 264 308 301 305 330 20 5 1 355
257 234 232 210 201 212 212 212 210 208 212 220 213 216 207 196 191 199 218 235 229 218 221 218 223 241 250 219 213 222 278 284 297 309 300 280 284 278 272 286 303 300 342 0 353
243 226 224 208 204 209 217 219 218 210 210 214 238 237 222 216 218 215 229 236 248 253 252 231 232 227 259 284 277 281 279 277 288 302 310 300 284 279 290 302 304 290 277 266 307
230 224 218 208 208 209 215 220 225 223 223 227 235 252 265 260 253 232 231 236 235 241 251 262 254 236 255 268 278 284 294 296 305 306 309 303 298 291 281 284 288 292 298 291 304
239 227 221 214 214 216 224 228 229 236 238 242 242 250 273 277 266 263 271 272 281 288 287 285 281 280 270 273 280 284 288 294 295 295 295 292 295 291 283 281 277 287 288 292 299
236 227 220 219 218 222 230 237 239 239 245 251 255 258 263 267 267 262 258 263 268 270 278 282 282 284 285 285 283 286 289 288 286 285 284 281 281 282 280 281 281 279 282 287 286
242 234 226 218 220 224 229 238 246 250 251 258 262 263 261 261 261 261 261 261 259 262 266 272 279 284 284 284 283 279 275 276 277 277 278 282 282 283 282 277 272 274 275 278 277
242 243 230 225 222 215 216 233 242 245 247 247 245 238 244 252 257 255 254 255 261 268 271 278 279 282 283 284 284 286 287 283 279 277 276 276 278 281 280 279 274 264 266 270 272
237 245 237 231 227 226 220 223 231 239 241 242 236 238 243 249 252 255 258 259 263 269 273 276 278 281 281 281 283 280 281 279 279 280 280 280 279 277 274 273 273 269 263 259 260
Height
5880 5879 5878 5877 5877 5876 5876 5876 5876 5877 5877 5878 5879 5879 5879 5880 5881 5881 5882 5883 5882 5883 5883 5883 5883 5883 5884 5885 5884 5884 5885 5885 5885 5886 5886 5887 5887 5888 5888 5886 5885 5885 5884 5884 5882
5879 5878 5877 5876 5875 5875 5876 5876 5876 5876 5877 5878 5878 5879 5879 5879 5880 5880 5882 5881 5882 5882 5882 5883 5883 5883 5883 5883 5883 5884 5884 5884 5885 5885 5886 5886 5885 5885 5885 5884 5883 5884 5882 5882 5881
5877 5876 5875 5874 5874 5874 5874 5874 5875 5875 5876 5877 5877 5878 5878 5878 5879 5880 5881 5881 5881 5881 5881 5882 5882 5883 5883 5883 5884 5885 5885 5884 5884 5884 5884 5883 5883 5883 5882 5882 5883 5883 5881 5881 5880
5875 5874 5873 5872 5871 5871 5872 5872 5873 5874 5875 5875 5876 5876 5876 5877 5880 5879 5880 5881 5881 5881 5881 5882 5882 5883 5884 5884 5885 5885 5886 5886 5885 5884 5882 5881 5880 5879 5880 5880 5880 5880 5881 5880 5878
5873 5872 5871 5870 5869 5869 5869 5870 5871 5873 5873 5874 5875 5875 5876 5876 5877 5878 5879 5880 5881 5881 5881 5882 5883 5883 5882 5883 5885 5886 5886 5886 5885 5884 5882 5880 5878 5878 5878 5877 5877 5878 5878 5879 5878
5871 5870 5869 5868 5868 5867 5867 5868 5869 5871 5872 5872 5874 5874 5875 5875 5876 5876 5877 5879 5880 5881 5881 5882 5882 5882 5882 5883 5885 5885 5885 5885 5884 5883 5883 5880 5878 5877 5876 5875 5875 5876 5875 5876 5877
5870 5869 5868 5867 5867 5867 5867 5867 5868 5869 5871 5872 5873 5873 5874 5875 5874 5875 5876 5877 5879 5880 5882 5883 5882 5882 5882 5882 5883 5884 5884 5884 5884 5883 5882 5879 5878 5875 5874 5872 5872 5873 5873 5873 5874
5868 5868 5867 5866 5866 5866 5866 5867 5868 5869 5870 5871 5872 5872 5873 5873 5874 5874 5875 5877 5878 5879 5881 5882 5882 5881 5880 5881 5882 5883 5884 5885 5884 5882 5880 5879 5877 5874 5872 5870 5869 5870 5871 5872 5872
5867 5866 5866 5865 5865 5865 5866 5867 5867 5868 5869 5870 5872 5872 5873 5874 5874 5874 5875 5876 5878 5879 5880 5881 5880 5880 5880 5881 5882 5883 5884 5885 5884 5882 5880 5878 5875 5873 5871 5869 5867 5867 5869 5871 5870
5866 5865 5865 5864 5865 5865 5865 5866 5867 5868 5869 5870 5871 5873 5873 5874 5874 5874 5875 5876 5878 5879 5880 5880 5879 5880 5880 5880 5882 5883 5884 5884 5883 5882 5880 5877 5874 5873 5870 5868 5866 5866 5868 5869 5868
5865 5864 5863 5863 5864 5865 5865 5866 5868 5869 5869 5870 5870 5870 5871 5873 5873 5874 5875 5876 5877 5878 5879 5879 5880 5880 5880 5880 5881 5882 5883 5884 5883 5881 5879 5877 5874 5873 5872 5869 5866 5866 5867 5868 5868
5863 5862 5862 5862 5863 5864 5864 5865 5866 5868 5868 5868 5869 5870 5870 5871 5872 5874 5875 5876 5877 5878 5878 5879 5879 5880 5880 5879 5881 5881 5883 5884 5882 5880 5879 5877 5877 5876 5873 5870 5867 5866 5866 5866 5869
5861 5860 5860 5860 5861 5862 5863 5864 5865 5866 5867 5868 5868 5869 5870 5871 5871 5873 5874 5875 5876 5877 5878 5879 5880 5879 5880 5881 5881 5881 5882 5882 5881 5880 5879 5880 5880 5877 5874 5871 5868 5867 5866 5865 5865
5858 5858 5858 5858 5860 5860 5861 5863 5864 5865 5866 5868 5868 5869 5870 5870 5872 5872 5873 5875 5876 5877 5878 5879 5880 5880 5881 5881 5882 5882 5883 5882 5881 5880 5879 5881 5881 5878 5874 5872 5870 5868 5867 5867 5868
5855 5855 5856 5856 5857 5857 5860 5861 5863 5864 5867 5868 5868 5868 5869 5870 5871 5872 5873 5873 5874 5875 5878 5879 5878 5880 5881 5882 5882 5882 5883 5883 5882 5880 5881 5881 5882 5880 5876 5873 5871 5870 5868 5868 5868
5852 5852 5853 5854 5854 5855 5857 5859 5861 5864 5864 5866 5866 5867 5869 5869 5870 5871 5872 5873 5874 5875 5876 5878 5880 5881 5882 5882 5881 5882 5881 5882 5883 5881 5881 5881 5883 5882 5878 5876 5873 5873 5872 5870 5870
5848 5849 5850 5851 5852 5852 5854 5857 5860 5861 5863 5864 5865 5866 5867 5869 5869 5871 5872 5873 5874 5875 5877 5879 5880 5881 5881 5881 5880 5880 5880 5880 5882 5881 5881 5881 5883 5882 5880 5879 5878 5875 5873 5872 5870
5843 5845 5846 5847 5848 5850 5852 5856 5858 5860 5861 5862 5864 5866 5867 5868 5870 5871 5872 5873 5874 5875 5877 5879 5881 5881 5881 5881 5880 5878 5879 5879 5880 5880 5880 5880 5880 5882 5881 5880 5878 5877 5875 5873 5872
5838 5839 5842 5844 5845 5846 5850 5853 5855 5857 5859 5860 5863 5865 5866 5867 5870 5870 5871 5872 5873 5874 5876 5876 5877 5878 5879 5879 5880 5879 5879 5879 5878 5878 5878 5878 5878 5880 5880 5879 5878 5878 5878 5875 5874
5832 5835 5837 5840 5842 5843 5845 5848 5851 5854 5857 5859 5860 5863 5866 5868 5869 5869 5870 5873 5873 5873 5873 5876 5876 5876 5878 5878 5877 5877 5879 5878 5877 5877 5877 5878 5877 5877 5877 5877 5877 5877 5877 5877 5874
5828 5831 5834 5836 5838 5840 5841 5845 5848 5852 5856 5859 5861 5863 5865 5867 5868 5869 5871 5872 5873 5873 5874 5874 5874 5877 5875 5876 5876 5876 5875 5876 5876 5875 5873 5874 5877 5875 5875 5875 5875 5875 5875 5872 5872
5826 5829 5830 5833 5836 5837 5837 5840 5844 5849 5852 5856 5859 5861 5863 5864 5864 5865 5866 5867 5868 5869 5869 5870 5871 5873 5874 5873 5872 5871 5871 5871 5871 5870 5869 5868 5872 5872 5872 5872 5872 5870 5871 5872 5871
5824 5825 5827 5829 5831 5833 5834 5838 5843 5846 5849 5852 5855 5857 5858 5859 5860 5860 5860 5861 5861 5861 5861 5863 5864 5865 5867 5869 5867 5866 5866 5865 5865 5864 5864 5862 5864 5864 5866 5867 5867 5867 5866 5867 5868
5821 5822 5823 5825 5828 5831 5833 5836 5840 5843 5846 5848 5851 5853 5854 5854 5854 5855 5856 5856 5856 5857 5857 5857 5858 5859 5860 5860 5862 5860 5859 5859 5859 5857 5856 5856 5855 5856 5858 5860 5860 5860 5860 5862 5861
5817 5818 5819 5822 5825 5828 5831 5834 5836 5839 5842 5844 5846 5848 5848 5848 5849 5849 5850 5851 5851 5852 5853 5854 5855 5856 5855 5855 5854 5854 5853 5853 5851 5849 5848 5847 5844 5846 5848 5850 5852 5851 5852 5853 5855
5814 5814 5816 5818 5821 5823 5827 5830 5832 5834 5837 5839 5841 5841 5841 5843 5845 5845 5845 5844 5844 5846 5847 5848 5848 5849 5849 5847 5846 5845 5845 5844 5843 5841 5839 5837 5836 5836 5836 5836 5838 5840 5840 5842 5844
5810 5811 5812 5815 5817 5820 5822 5825 5827 5828 5831 5832 5834 5835 5837 5839 5838 5839 5839 5839 5841 5843 5841 5842 5841 5841 5840 5839 5837 5836 5836 5833 5831 5830 5827 5825 5825 5824 5823 5822 5823 5825 5827 5830 5831